Concord, CA

2:54 AM PDT on April 22, 2018 (GMT -0700)
Buchanan

Weather History for KCCR - September, 2013

Change the Weather History Date:

Tuesday, September 24, 2013

  Actual Average Record
Temperature  
Mean Temperature 68 °F 69 °F  
Max Temperature 77 °F 83 °F 96 °F (2015)
Min Temperature 59 °F 55 °F 48 °F (2005)
Degree Days  
Heating Degree Days 0    
Month to date heating degree days 6  
Since 1 July heating degree days 12  
Cooling Degree Days 3    
Month to date cooling degree days 138  
Year to date cooling degree days 814  
Growing Degree Days 18 (Base 50)    
Moisture  
Dew Point 50 °F    
Average Humidity 60    
Maximum Humidity 84    
Minimum Humidity 35    
Precipitation  
Precipitation 0.00 in - 0.15 in (2001)
Month to date precipitation 0.66  
Year to date precipitation 2.72  
Since 1 July precipitation 0.66  
Sea Level Pressure  
Sea Level Pressure 29.89 in    
Wind  
Wind Speed 10 mph (WSW)    
Max Wind Speed 23 mph    
Max Gust Speed 33 mph    
Visibility 10 miles    
Events      
T = Trace of Precipitation, MM = Missing Value Source: NWS Daily Summary

Daily Weather History Graph

Daily Weather History Graph

Search for Another Location

Airport or City:

Astronomy

Sep. 24, 2013 Rise Set
Actual Time 6:58 AM PDT 7:01 PM PDT
Civil Twilight 6:31 AM PDT 7:27 PM PDT
Nautical Twilight 6:01 AM PDT 7:58 PM PDT
Astronomical Twilight 5:30 AM PDT 8:29 PM PDT
Moon 10:28 PM PDT (9/24) 12:12 PM PDT (9/24)
Length of Visible Light 12h 55m
Length of Day
12h 03m
Waning Gibbous, 72% of the Moon is Illuminated
Sep 24
Waning Gibbous
Sep 26
Last Quarter
Oct 4
New
Oct 11
First Quarter
Oct 18
Full

Hourly Weather History & Observations

Time (PDT) Temp. Dew Point Humidity Pressure Visibility Wind Dir Wind Speed Gust Speed Precip Events Conditions
12:53 AM 64.0 °F 55.9 °F 75% 29.90 in 10.0 mi SSW 6.9 mph - N/A   Clear
1:53 AM 63.0 °F 55.9 °F 78% 29.90 in 10.0 mi South 9.2 mph - N/A   Clear
2:53 AM 61.0 °F 55.9 °F 83% 29.90 in 10.0 mi South 6.9 mph - N/A   Clear
3:53 AM 61.0 °F 54.0 °F 78% 29.89 in 10.0 mi South 5.8 mph - N/A   Clear
4:53 AM 61.0 °F 54.0 °F 78% 29.90 in 10.0 mi SSW 6.9 mph - N/A   Clear
5:53 AM 60.1 °F 53.1 °F 78% 29.90 in 10.0 mi South 6.9 mph - N/A   Clear
6:53 AM 60.1 °F 53.1 °F 78% 29.91 in 10.0 mi SSW 6.9 mph - N/A   Clear
7:53 AM 62.1 °F 54.0 °F 75% 29.93 in 10.0 mi Variable 5.8 mph - N/A   Clear
8:53 AM 64.0 °F 53.1 °F 67% 29.93 in 10.0 mi WSW 8.1 mph - N/A   Clear
9:53 AM 66.9 °F 52.0 °F 59% 29.95 in 10.0 mi WSW 10.4 mph - N/A   Clear
10:53 AM 70.0 °F 46.0 °F 42% 29.94 in 10.0 mi West 9.2 mph 23.0 mph N/A   Clear
11:53 AM 73.0 °F 45.0 °F 37% 29.93 in 10.0 mi West 10.4 mph - N/A   Clear
12:53 PM 73.9 °F 48.0 °F 40% 29.93 in 10.0 mi WSW 13.8 mph 20.7 mph N/A   Clear
1:53 PM 75.0 °F 46.0 °F 36% 29.89 in 10.0 mi West 6.9 mph - N/A   Clear
2:53 PM 75.9 °F 46.9 °F 36% 29.87 in 10.0 mi SW 8.1 mph 16.1 mph N/A   Clear
3:53 PM 75.0 °F 50.0 °F 41% 29.87 in 10.0 mi SW 17.3 mph 21.9 mph N/A   Clear
4:53 PM 72.0 °F 48.9 °F 44% 29.87 in 10.0 mi WNW 18.4 mph 25.3 mph N/A   Clear
5:53 PM 68.0 °F 48.9 °F 50% 29.86 in 10.0 mi WNW 18.4 mph 27.6 mph N/A   Clear
6:53 PM 64.9 °F 48.0 °F 54% 29.86 in 10.0 mi WSW 15.0 mph - N/A   Clear
7:53 PM 63.0 °F 48.0 °F 58% 29.86 in 10.0 mi SSW 9.2 mph - N/A   Clear
8:53 PM 62.1 °F 48.0 °F 60% 29.86 in 10.0 mi West 8.1 mph - N/A   Clear
9:53 PM 61.0 °F 48.9 °F 64% 29.86 in 10.0 mi West 17.3 mph - N/A   Clear
10:53 PM 61.0 °F 48.0 °F 62% 29.87 in 10.0 mi WNW 13.8 mph - N/A   Clear
11:53 PM 60.1 °F 46.0 °F 60% 29.86 in 10.0 mi WNW 6.9 mph 18.4 mph N/A   Clear